User: anonymous   Login
Location: Caltech
(34.1382°N, 118.1253°W)
Time: 02:55:29
(UTC-08:00)
Language:

Cosmos 2360 Rocket - Orbit

View from above orbital plane
View from above orbital plane
View from above satellite
View from above satellite

Ground track
Ground track

The orbit data is extracted from the following two-line orbital elements,

1 25407U 98045B   14326.15427934 -.00000219  00000-0 -87464-4 0  6191
2 25407 071.0114 212.5635 0008546 212.5787 301.2948 14.15683449843426
Epoch (UTC): 22 November 2014 03:42:09
Eccentricity: 0.0008546
inclination: 71.0114°
perigee height: 834 km
apogee height: 846 km
right ascension of ascending node: 212.5635°
argument of perigee: 212.5787°
revolutions per day: 14.15683449
mean anomaly at epoch: 301.2948°
orbit number at epoch: 84342

The dashed part of the orbit path shows where the satellite is in the earth's shadow,  

DLR